Home   Weather   Kemerovo   Past weeks

Flag for Russia Past Weather in Kemerovo, Russia — Yesterday and Last 2 Weeks

Now
0 °F

Snow flurries. Overcast.


Feels Like: -15 °F
Forecast: -1 / 17 °F
Wind: 8 mph from Southeast

Location: Kemerovo

Current Time: Jan 19, 2017 at 6:03:46 pm

Latest Report: Jan 19, 2017 at 5:00 pm


Visibility: 3 mi

Pressure: 30.54 "Hg

Humidity: 84%

Dew Point: -4 °F

Location of KemerovoLocation

Past Weather in Kemerovo — Graph

°F

Kemerovo Temperature Yesterday

Maximum temperature yesterday: 3 °F (at 2:30 pm)
Minimum temperature yesterday: -4 °F (at 12:30 am)
Average temperature yesterday: -1 °F

High & Low Weather Summary for the Past Weeks

 TemperatureHumidityPressure
High30 °F (Jan 4, 6:00 pm)93% (Jan 4, 5:30 pm)30.74 "Hg (Jan 4, 5:30 pm)
Low-22 °F (Jan 16, 12:30 am)67% (Jan 12, 4:30 am)29.80 "Hg (Jan 12, 2:00 am)
Average4 °F81%30.32 "Hg
* Reported Jan 4 4:00 pm — Jan 19 4:30 pm, Kemerovo, Weather by CustomWeather, © 2017

Note: Actual official high and low records may vary slightly from our data, if they occured in-between our weather recording intervals... More about our weather records

Advertising

Kemerovo Weather History for the Previous 24 Hours

Scroll right to see more
 ConditionsComfort  
Time TempWeatherWind HumidityBarometerVisibility
4:30 pm
Thu, Jan 19
0 °FSnow flurries. Partly sunny.8 mph84%30.54 "Hg3 mi
4:00 pm0 °FSnow flurries. Partly sunny.8 mph78%30.54 "Hg2 mi
3:30 pm0 °FSnow flurries. Partly sunny.6 mph84%30.54 "Hg3 mi
3:00 pm0 °FSnow flurries. Partly sunny.8 mph84%30.51 "Hg2 mi
2:30 pm0 °FSnow flurries. Partly sunny.6 mph84%30.51 "Hg3 mi
2:00 pm0 °FSnow flurries. Partly sunny.6 mph84%30.51 "Hg2 mi
1:30 pm0 °FSnow flurries. Partly sunny.6 mph84%30.51 "Hg2 mi
1:00 pm0 °FSnow flurries. Partly sunny.8 mph78%30.51 "Hg1 mi
12:30 pm0 °FSnow flurries. Partly sunny.8 mph78%30.51 "Hg2 mi
12:00 pm-2 °FSnow flurries. Partly sunny.8 mph84%30.51 "Hg2 mi
11:30 am-2 °FSnow flurries. Ice fog.8 mph84%30.51 "Hg2 mi
11:00 am-2 °FSnow flurries. Ice fog.8 mph84%30.51 "Hg1 mi
10:30 am-2 °FLight snow. Ice fog.8 mph84%30.51 "Hg1 mi
10:00 am-2 °FLight snow. Ice fog.6 mph84%30.51 "Hg2 mi
9:30 am-2 °FLight snow. Ice fog.8 mph84%30.51 "Hg1 mi
9:00 am-2 °FFrigid.6 mph84%30.51 "Hg1 mi
8:30 am-2 °FLight snow. Ice fog.6 mph84%30.51 "Hg2 mi
8:00 am-2 °FLight snow. Ice fog.8 mph84%30.48 "Hg3 mi
7:30 am-2 °FLight snow. Overcast.8 mph84%30.48 "Hg4 mi
7:00 am-2 °FLight snow. Ice fog.8 mph84%30.48 "Hg2 mi
6:30 am-2 °FLight snow. Ice fog.6 mph84%30.48 "Hg3 mi
6:00 am-2 °FLight snow. Overcast.6 mph84%30.48 "Hg4 mi
5:30 am-2 °FLight snow. Overcast.6 mph84%30.48 "Hg4 mi
5:00 am0 °FLight snow. Overcast.8 mph78%30.48 "Hg6 mi
4:30 am-2 °FLight snow. Overcast.6 mph84%30.48 "Hg6 mi
4:00 am0 °FLight snow. Overcast.6 mph78%30.48 "Hg4 mi
3:30 am-2 °FFrigid.3 mph84%30.48 "Hg2 mi
3:00 am-2 °FLight snow. Ice fog.3 mph84%30.48 "Hg3 mi
2:30 am0 °FLight snow. Ice fog.3 mph84%30.48 "Hg3 mi
2:00 am0 °FLight snow. Overcast.6 mph84%30.48 "Hg4 mi
1:30 am0 °FLight snow. Ice fog.6 mph84%30.48 "Hg3 mi
1:00 am0 °FLight snow. Ice fog.6 mph84%30.48 "Hg3 mi
12:30 am1 °FLight snow. Ice fog.6 mph78%30.48 "Hg3 mi
12:00 am1 °FLight snow. Ice fog.6 mph78%30.48 "Hg2 mi
11:30 pm
Wed, Jan 18
0 °FLight snow. Ice fog.6 mph84%30.48 "Hg3 mi
11:00 pm1 °FLight snow. Ice fog.3 mph78%30.51 "Hg3 mi
10:30 pm1 °FLight snow. Ice fog.3 mph78%30.51 "Hg2 mi
10:00 pm0 °FLight snow. Ice fog.3 mph84%30.51 "Hg2 mi
9:30 pm0 °FLight snow. Ice fog.1 mph84%30.51 "Hg2 mi
9:00 pm0 °FLight snow. Passing clouds.No wind84%30.51 "Hg4 mi
8:30 pm0 °FPassing clouds.1 mph84%30.51 "Hg4 mi
8:00 pm0 °FPassing clouds.1 mph84%30.51 "Hg4 mi
7:30 pm0 °FClear.1 mph84%30.51 "Hg4 mi
7:00 pm0 °FClear.3 mph84%30.51 "Hg4 mi
6:30 pm0 °FClear.3 mph84%30.51 "Hg4 mi
6:00 pm0 °FClear.6 mph84%30.51 "Hg4 mi
Weather by CustomWeather, © 2017

See weather overviewHow to use our weather pages